EW1071 Weather Reports


Display with metric or nautical units.
time (UTC)temp
F
wind
direction
speed
MPH
gust
MPH
rain 1hr
in
rain 24hr
in
rain mn
in
humidity
%
barometer
mb
20260503011536 55 115 0.0 6.0 0.00 0.00 0.00 93 1014.0
20260503010037 55 115 0.0 0.0 0.00 0.00 0.00 92 1014.1
20260503004535 55 115 0.0 0.0 0.00 0.00 0.00 92 1014.1
20260503003038 55 115 0.0 1.0 0.00 0.00 0.00 92 1014.1
20260503001531 56 115 0.0 3.0 0.00 0.00 0.00 92 1014.1
20260503000039 56 115 0.0 0.0 0.00 0.00 0.00 92 1014.2
20260502234547 56 115 0.0 0.0 0.00 0.00 0.00 92 1014.3
20260502233025 57 115 0.0 1.0 0.00 0.00 0.00 92 1014.4
20260502231530 57 115 0.0 0.0 0.00 0.00 0.00 92 1014.7
20260502230023 57 115 0.0 7.0 0.00 0.00 0.00 92 1014.9
20260502224521 57 115 0.0 0.0 0.00 0.00 0.00 92 1014.8
20260502223034 57 115 0.0 0.0 0.00 0.00 0.00 92 1015.1
20260502221519 57 115 0.0 6.0 0.00 0.00 0.00 92 1015.1
20260502220017 57 115 0.0 0.0 0.00 0.00 0.00 92 1015.3
20260502214517 57 115 3.0 13.0 0.00 0.00 0.00 92 1015.4
20260502213015 57 113 5.0 13.0 0.00 0.00 0.00 92 1015.6
20260502211513 57 115 6.0 16.0 0.00 0.00 0.00 93 1015.6
20260502210010 57 126 5.0 13.0 0.00 0.00 0.00 93 1015.5
20260502204509 57 140 0.0 9.0 0.00 0.00 0.00 93 1015.7
20260502203006 58 144 0.0 3.0 0.00 0.00 0.00 93 1015.8
20260502201506 58 144 0.0 0.0 0.00 0.00 0.00 93 1015.8
20260502200010 58 144 0.0 0.0 0.00 0.00 0.00 93 1015.9
20260502194511 58 144 0.0 0.0 0.00 0.00 0.00 93 1016.0
20260502193004 58 144 0.0 0.0 0.00 0.00 0.00 92 1015.8
20260502191502 58 144 0.0 0.0 0.00 0.00 0.00 92 1015.8
20260502190002 57 144 0.0 4.0 0.00 0.00 0.00 92 1015.6
20260502184600 58 145 1.0 4.0 0.00 0.00 0.00 92 1015.3
20260502183108 57 146 0.0 2.0 0.00 0.00 0.00 92 1015.1
20260502181558 57 146 1.0 3.0 0.00 0.00 0.00 92 1015.1
20260502163054 59 147 0.0 0.0 0.00 0.00 0.00 91 1013.0
20260502161554 59 147 0.0 0.0 0.00 0.00 0.00 91 1012.9
20260502151530 61 147 0.0 5.0 0.00 0.00 0.00 90 1012.6
20260502123014 67 146 0.0 0.0 0.00 0.00 0.00 81 1011.1
20260502121510 67 146 0.0 0.0 0.00 0.00 0.00 80 1011.4
20260502114504 69 142 1.0 10.0 0.00 0.00 0.00 74 1012.3
20260502113127 69 137 0.0 0.0 0.00 0.00 0.00 73 1012.5
20260502110028 68 132 0.0 4.0 0.00 0.00 0.00 75 1012.3
20260502104527 68 132 0.0 0.0 0.00 0.00 0.00 76 1012.7
20260502103023 68 132 0.0 3.0 0.00 0.00 0.00 77 1013.2
20260502101520 67 132 0.0 0.0 0.00 0.00 0.00 79 1013.6
20260502091511 63 132 0.0 0.0 0.00 0.00 0.00 89 1015.3
20260502070112 58 125 0.0 0.0 0.00 0.00 0.00 95 1016.2
20260502064555 57 125 0.0 0.0 0.00 0.00 0.00 95 1016.3
20260502063055 58 125 0.0 6.0 0.00 0.00 0.00 95 1016.1
20260502061555 58 125 0.0 0.0 0.00 0.00 0.00 95 1016.2
20260502060054 57 125 0.0 0.0 0.00 0.00 0.00 95 1016.2
20260502054552 57 125 0.0 0.0 0.00 0.00 0.00 95 1016.2
20260502053055 57 125 0.0 0.0 0.00 0.00 0.00 95 1016.0
20260502051559 57 125 0.0 0.0 0.00 0.00 0.00 95 1015.8
20260502050052 57 125 0.0 1.0 0.00 0.00 0.00 95 1015.7
20260502044546 56 125 0.0 0.0 0.00 0.00 0.00 95 1015.6
20260502043046 56 125 0.0 0.0 0.00 0.00 0.00 95 1015.5
20260502041542 56 125 0.0 0.0 0.00 0.00 0.00 94 1015.3
20260502040041 56 125 0.0 3.0 0.00 0.00 0.00 94 1014.9
20260502034539 56 125 0.0 4.0 0.00 0.00 0.00 94 1014.7
20260502033038 56 125 0.0 0.0 0.00 0.00 0.00 94 1014.6
20260502031538 56 125 0.0 2.0 0.00 0.00 0.00 94 1014.5
20260502030044 56 125 0.0 0.0 0.00 0.00 0.00 94 1014.5
20260502024536 56 125 0.0 0.0 0.00 0.00 0.00 94 1014.2
20260502023037 56 125 0.0 0.0 0.00 0.00 0.00 94 1014.1
20260502021536 57 125 0.0 0.0 0.00 0.00 0.00 94 1014.1
20260502020036 56 125 0.0 0.0 0.00 0.00 0.00 94 1013.9
20260502014536 56 125 0.0 0.0 0.00 0.00 0.00 94 1013.7
20260502013035 56 125 0.0 0.0 0.00 0.00 0.00 94 1013.7